Regional Weather Roundup
Issued by NWS

Home | Current Version | Previous Version | Graphics & Text | Print | Product List | Glossary On
Versions: 1 2 3 4 5 6 7 8 9 10 11 12 13 14 15 16 17 18 19 20 21 22 23 24 25 26 27 28 29 30 31 32 33 34 35 36 37 38 39 40 41 42 43 44 45 46 47 48 49 50
000
ASUS43 KDTX 020210
RWRMI
MICHIGAN HOURLY REGIONAL WEATHER ROUNDUP
NATIONAL WEATHER SERVICE DETROIT/PONTIAC MI
900 PM EST SUN MAR 01 2015

NOTE: "FAIR" INDICATES FEW OR NO CLOUDS BELOW 12,000 FEET WITH NO
SIGNIFICANT WEATHER AND/OR OBSTRUCTION TO VISIBILITY.

MIZ047>049-052>055-059>063-066>070-074>076-081>083-020300-
SOUTHEAST LOWER MICHIGAN

CITY           SKY/WX    TMP DP  RH WIND       PRES   REMARKS
ADRIAN         PTCLDY    19  14  81 W8        30.24R WCI   9
ALMA           CLOUDY    23  19  83 W8        30.20S WCI  14
ANN ARBOR      CLOUDY    20  14  77 W7        30.21S WCI  11
BAD AXE        MOCLDY    22  16  76 SW8       30.15F WCI  13
CARO           CLOUDY    23  16  74 SW7       30.17S WCI  14
DETROIT CITY   PTCLDY    24  16  71 W6        30.20F WCI  17
DETROIT        PTCLDY    22  17  81 SW9       30.22F WCI  12
FLINT          CLOUDY    25  14  63 SW6       30.19S WCI  18
GROSSE ILE     PTCLDY    19  18  93 SW7       30.20F WCI  10
HILLSDALE      CLOUDY    22  18  85 W6        30.20S WCI  14
HOWELL         CLOUDY    22  16  75 SW6       30.19S WCI  15

CITY           SKY/WX    TMP DP  RH WIND       PRES   REMARKS
JACKSON        CLOUDY    22  15  75 W7        30.20S WCI  13
LAMBERTVILLE   PTCLDY    21  18  86 SW5       30.24S WCI  15
LANSING        CLOUDY    23  16  74 W12       30.21S WCI  12
LAPEER         CLOUDY    23  14  69 W5        30.17F WCI  17
MASON          CLOUDY    23  16  74 W5        30.20S WCI  17
MONROE         PTCLDY    16  12  86 SW7       30.21S WCI   6
MT. CLEMENS    PTCLDY    23  13  66 W3        30.18F
PONTIAC        CLOUDY    19  11  70 CALM      30.17F
PORT HOPE        N/A     22  14  71 SW7       30.13F WCI  13
PORT HURON     CLEAR     12  10  92 CALM      30.19F FOG
TRI CITIES     CLOUDY    25  17  72 W14       30.18F WCI  13
TROY           CLEAR     24  13  64 W3        30.21F
SAGINAW HB     PTCLDY    25  19  80 SW7       30.18F WCI  17
$$
MIZ043>046-050>051-056>058-064>065-071>073-077>080-020300-
SOUTHWEST LOWER MICHIGAN

CITY           SKY/WX    TMP DP  RH WIND       PRES   REMARKS
BATTLE CREEK   CLOUDY    24  16  71 W12       30.22S WCI  13
BENTON HARBOR  CLOUDY    22  17  81 W17       30.27S WCI   8
BIG RAPIDS     FLURRIES  22  19  89 SW5       30.15S WCI  16
COLDWATER      CLOUDY    21  17  83 W8        30.23R WCI  12
FREMONT        CLOUDY    24  19  81 SW6       30.18F WCI  16
HOLLAND        CLOUDY    25  19  78 SW13      30.23F WCI  14
GRAND RAPIDS   CLOUDY    23  17  78 SW12      30.21F WCI  12
IONIA          CLOUDY    24  19  80 W12G17    30.19F WCI  13
KALAMAZOO      CLOUDY    24  16  71 W8        30.24S WCI  15
LUDINGTON      CLOUDY    28  19  67 W10G17    30.17S WCI  19
MARSHALL       CLOUDY    22  16  76 W15       30.21S WCI   9
MOUNT PLEASANT CLOUDY    24  17  74 SW10      30.17F WCI  13
MUSKEGON       CLOUDY    27  18  69 W13       30.21F WCI  16
SOUTH HAVEN    CLOUDY    25  21  83 W10G16    30.25S WCI  15
$$
MIZ016>042-020300-
NORTHERN LOWER MICHIGAN

CITY           SKY/WX    TMP DP  RH WIND       PRES   REMARKS
ALPENA         CLOUDY    24  12  60 SW5       30.10F WCI  18
BEAVER ISLAND  CLOUDY    24  19  80 W21G26    30.07S WCI  10
BELLAIRE       FLURRIES  23  17  75 SW5       30.12F WCI  17
CADILLAC       LGT SNOW  20  16  84 SW10      30.09F WCI   8
CHARLEVOIX     LGT SNOW  22  18  84 S8        30.12F WCI  13
FRANKFORT      FLURRIES  27  22  79 W13G20    30.13S WCI  16
GAYLORD        FLURRIES  19  14  81 SW13      30.06F WCI   6
GRAYLING       LGT SNOW  21  14  75 SW6       30.10F WCI  13
HARBOR SPRINGS LGT SNOW  22  17  81 SW8       30.08F WCI  12
HOUGHTON LAKE  FLURRIES  21  14  74 W10       30.12S WCI  10
MANISTEE       CLOUDY    27  18  69 W15G22    30.15F WCI  15
OSCODA         MOCLDY    21  14  72 SW10      30.13S WCI  10
PELLSTON       LGT SNOW  22  16  78 SW12      30.08F WCI  10
ROGERS CITY    CLOUDY    23  15  70 W6        30.11R WCI  16
TRAVERSE CITY  LGT SNOW  23  17  78 VRB6      30.11F WCI  16
$$
MIZ007>008-015-020300-
EASTERN UPPER MICHIGAN

CITY           SKY/WX    TMP DP  RH WIND       PRES   REMARKS
KINROSS        CLOUDY    21  19  93 SW6       30.04F WCI  14
MACKINAC ISLAN FLURRIES  23  18  80 SW7G22    30.05F WCI  15
NEWBERRY       LGT SNOW  21  19  89 W8        30.03S WCI  12
S. S. MARIE    LGT SNOW  20  16  84 SW6       30.03F FOG     WCI  12
MUNISING         N/A     23   8  52 VRB3      30.07S
$$
MIZ004>006-011>014-085-020300-
CENTRAL UPPER MICHIGAN

CITY           SKY/WX    TMP DP  RH WIND       PRES   REMARKS
MANISTIQUE     CLOUDY    24  15  69 NW14G21   30.07R WCI  11
ESCANABA       PTCLDY    21   9  58 W8        30.12S WCI  12
MENOMINEE      CLEAR     19   9  63 W7        30.15S WCI  10
SAWYER-GWINN   MOCLDY    16   7  67 SW5       30.04S WCI   9
$$
MIZ001>003-009>011-084-020300-
WESTERN UPPER MICHIGAN

CITY           SKY/WX    TMP DP  RH WIND       PRES   REMARKS
IRON MOUNTAIN  MOCLDY    17   6  62 W5        30.07S WCI  10
HOUGHTON       MOCLDY    20  10  65 W21       30.02R WCI   4
COPPER HARBOR    N/A     23   9  55 NW9G18    30.02S WCI  13
IRONWOOD       CLOUDY    19   9  63 W17G25    30.09R WCI   4
$$

ABBREVIATIONS USED IN REMARKS
   TC - TEMPERATURE IN CELSIUS
  WCI - WIND CHILL INDEX
   HX - HEAT INDEX
  VSB - VISIBILITY




USA.gov is the U.S. government's official web portal to all federal, state and local government web resources and services.